Location: *
(57.8420°S, 159.8600°W)
Time: 04:08:35
(UTC+00:00)

Cosmos 990 Rocket - Pass Details

Date: 18 May 2021
Orbit: 747 x 769 km, 74.0° (Epoch: 20 June)

Event Time Altitude Azimuth Distance (km) Brightness Sun altitude
Rises 04:25:40 0° 211° (SSW) 3,238 7.5 -15.2°
Reaches altitude 10° 04:28:04 10° 208° (SSW) 2,309 6.7 -15.5°
Maximum altitude 04:33:17 67° 124° (SE) 828 3.9 -16.2°
Drops below altitude 10° 04:38:29 10° 41° (NE) 2,295 6.2 -16.8°
Enters shadow 04:39:44 - 39° (NE) 2,776 6.6 -17.0°
